Regional Weather Roundup
Issued by NWS

Home | Current Version | Previous Version | Text Only | Print | Product List | Glossary On
Versions: 1 2 3 4 5 6 7 8 9 10 11 12 13 14 15 16 17 18 19 20 21 22 23 24 25 26 27
000
ASUS45 KREV 030310
RWRNV
NEVADA REGIONAL WEATHER ROUNDUP
NATIONAL WEATHER SERVICE RENO NV
700 PM PST FRI DEC 02 2016

NOTE: "FAIR" INDICATES FEW OR NO CLOUDS BELOW 12,000 FEET WITH NO
SIGNIFICANT WEATHER AND/OR OBSTRUCTIONS TO VISIBILITY.

NVZ001-003-004-030400-
WESTERN NEVADA

CITY           SKY/WX    TMP DP  RH WIND       PRES   REMARKS
RENO           CLEAR     32  13  45 E6        30.33R
CARSON CITY    FAIR      28  14  54 SE3       30.35R
MINDEN         FAIR      21  12  68 E6        30.34R
PYRAMID LAKE     N/A     36 N/A N/A SW8         N/A
FALLON         PTCLDY    26  13  57 S6        30.35R
LOVELOCK       CLOUDY    27  16  63 SW3       30.35S
HAWTHORNE        N/A    N/A N/A N/A MISG        N/A
$$

NVZ002-CAZ072-073-030400-
NORTHERN AND CENTRAL SIERRA

CITY           SKY/WX    TMP DP  RH WIND       PRES   REMARKS
S. LAKE TAHOE  PTCLDY    25  12  58 S3        30.25R
TRUCKEE        PTCLDY    23  12  63 CALM      30.28R
SQUAW VLY 8000   N/A     21   9  58 NE5         N/A
SUSANVILLE     MOCLDY   N/A N/A N/A CALM      30.34S
MAMMOTH LAKES  FAIR      18  -2  42 CALM      30.28R
BRIDGEPORT       N/A     21   9  59 CALM      30.25R
$$

NVZ030-031-036-030400-
NORTHERN NEVADA

CITY           SKY/WX    TMP DP  RH WIND       PRES   REMARKS
ELKO           PTCLDY    22  15  75 W3        30.31R
WINNEMUCCA     CLOUDY    26  20  77 SE6       30.32F
WENDOVER       CLEAR     30  18  59 CALM      30.31S
$$

NVZ035-037-030400-
CENTRAL NEVADA

CITY           SKY/WX    TMP DP  RH WIND       PRES   REMARKS
ELY            CLEAR     16   9  74 E3        30.25R
EUREKA           N/A      7   2  80 CALM      30.31R
$$

NVZ013-014-030400-
SOUTH CENTRAL NEVADA

CITY           SKY/WX    TMP DP  RH WIND       PRES   REMARKS
TONOPAH        CLEAR     26   9  48 N14       30.28R
$$

NVZ017-020-022-030400-
SOUTHERN NEVADA

CITY           SKY/WX    TMP DP  RH WIND       PRES   REMARKS
LAS VEGAS      CLEAR     49  10  20 N14       30.16R
N. LAS VEGAS   CLEAR     47  11  23 N9        30.16R
NELLIS AFB     CLEAR     49  14  24 NW12      30.15R
HENDERSON      CLEAR     47  12  24 N16       30.16R
MERCURY        CLEAR     41   8  25 NE10      30.18R
$$




USA.gov is the U.S. government's official web portal to all federal, state and local government web resources and services.